User: anonymous   Login
Location: Unspecified
(0.0000°N, 0.0000°E)
Time: 23:53:55
(UTC+00:00)
Language:

ISS - Orbit

View from above orbital plane
View from above orbital plane
View from above satellite
View from above satellite

Ground track
Ground track

The orbit data is extracted from the following two-line orbital elements,

1 25544U 98067A   16273.53571637  .00016717  00000-0  10270-3 0  9036
2 25544  51.6388 257.5180 0006949  16.8587 343.2796 15.53997165 21215
Epoch (UTC): 29 September 2016 12:51:25
Eccentricity: 0.0006949
inclination: 51.6388°
perigee height: 400 km
apogee height: 410 km
right ascension of ascending node: 257.5180°
argument of perigee: 16.8587°
revolutions per day: 15.53997165
mean anomaly at epoch: 343.2796°
orbit number at epoch: 2121

The dashed part of the orbit path shows where the satellite is in the earth's shadow,  

DLR